DW3588 Weather Reports


Display with metric or nautical units.
time (UTC)temp
F
wind
direction
speed
MPH
gust
MPH
rain 1hr
in
rain 24hr
in
rain mn
in
humidity
%
barometer
mb
20260903062543 64 319 2.0 4.0 0.00 0.00 0.00 68 1015.3
20260903062041 64 319 2.0 4.0 0.00 0.00 0.00 67 1015.3
20260903061539 64 343 2.0 4.0 0.00 0.00 0.00 67 1015.3
20260903061038 64 329 2.0 4.0 0.00 0.00 0.00 66 1015.4
20260903060757 64 329 2.0 4.0 0.00 0.00 0.00 66 1015.3
20260903060252 64 329 2.0 4.0 0.00 0.00 0.00 65 1015.3
20260903055800 65 313 2.0 4.0 0.00 0.00 0.00 65 1015.3
20260903055033 65 313 2.0 4.0 0.00 0.00 0.00 65 1015.4
20260903054531 65 312 2.0 4.0 0.00 0.00 0.00 64 1015.5
20260903054028 65 310 2.0 6.0 0.00 0.00 0.00 64 1015.5
20260903053527 65 313 2.0 6.0 0.00 0.00 0.00 63 1015.5
20260903053026 65 323 3.0 6.0 0.00 0.00 0.00 63 1015.5
20260903052517 65 315 4.0 8.0 0.00 0.00 0.00 63 1015.5
20260903052015 65 320 4.0 8.0 0.00 0.00 0.00 62 1015.5
20260903051514 66 315 3.0 7.0 0.00 0.00 0.00 61 1015.4
20260903051014 66 307 3.0 6.0 0.00 0.00 0.00 61 1015.4
20260903050512 66 298 2.0 5.0 0.00 0.00 0.00 61 1015.5
20260903050011 66 298 2.0 7.0 0.00 0.00 0.00 61 1015.5
20260903045510 66 294 2.0 7.0 0.00 0.00 0.00 61 1015.5
20260903045010 67 294 2.0 5.0 0.00 0.00 0.00 60 1015.5
20260903044509 67 300 2.0 4.0 0.00 0.00 0.00 60 1015.5
20260903044007 67 302 2.0 4.0 0.00 0.00 0.00 60 1015.5
20260903043728 67 286 3.0 4.0 0.00 0.00 0.00 60 1015.4
20260903043006 67 273 2.0 4.0 0.00 0.00 0.00 60 1015.4
20260903042506 67 298 2.0 4.0 0.00 0.00 0.00 61 1015.4
20260903042002 68 289 2.0 4.0 0.00 0.00 0.00 60 1015.4
20260903041500 68 288 2.0 4.0 0.00 0.00 0.00 60 1015.3
20260903041219 68 288 2.0 4.0 0.00 0.00 0.00 60 1015.3
20260903040458 68 283 2.0 4.0 0.00 0.00 0.00 60 1015.3
20260903035956 68 276 2.0 6.0 0.00 0.00 0.00 61 1015.2
20260903035454 69 283 3.0 8.0 0.00 0.00 0.00 60 1015.2
20260903034953 69 284 4.0 9.0 0.00 0.00 0.00 60 1015.1
20260903034451 69 326 5.0 9.0 0.00 0.00 0.00 60 1015.0
20260903033950 69 277 5.0 9.0 0.00 0.00 0.00 59 1015.0
20260903033448 69 309 5.0 10.0 0.00 0.00 0.00 59 1014.9
20260903032947 70 319 5.0 10.0 0.00 0.00 0.00 58 1014.8
20260903032441 70 332 4.0 9.0 0.00 0.00 0.00 57 1014.7
20260903032208 71 303 4.0 10.0 0.00 0.00 0.00 56 1014.7
20260903031437 71 311 4.0 10.0 0.00 0.00 0.00 54 1014.6
20260903030939 71 311 4.0 9.0 0.00 0.00 0.00 52 1014.6
20260903030437 72 321 4.0 9.0 0.00 0.00 0.00 51 1014.5
20260903025936 72 324 3.0 8.0 0.00 0.00 0.00 50 1014.5
20260903025434 73 313 3.0 7.0 0.00 0.00 0.00 49 1014.4
20260903024932 73 264 2.0 7.0 0.00 0.00 0.00 48 1014.4
20260903024428 74 235 3.0 8.0 0.00 0.00 0.00 49 1014.4
20260903023927 74 241 2.0 8.0 0.00 0.00 0.00 50 1014.4
20260903023424 74 242 2.0 6.0 0.00 0.00 0.00 50 1014.3
20260903022925 74 253 4.0 9.0 0.00 0.00 0.00 50 1014.4
20260903022423 75 275 4.0 10.0 0.00 0.00 0.00 50 1014.4
20260903021921 75 266 5.0 11.0 0.00 0.00 0.00 50 1014.3
20260903021419 75 276 5.0 11.0 0.00 0.00 0.00 50 1014.3
20260903020914 75 268 4.0 8.0 0.00 0.00 0.00 50 1014.3
20260903020414 76 281 4.0 7.0 0.00 0.00 0.00 50 1014.3
20260903015912 76 285 3.0 8.0 0.00 0.00 0.00 50 1014.4
20260903015412 76 234 3.0 8.0 0.00 0.00 0.00 50 1014.4
20260903015132 76 199 3.0 6.0 0.00 0.00 0.00 51 1014.4
20260903014407 76 218 3.0 6.0 0.00 0.00 0.00 51 1014.3
20260903013905 76 205 3.0 7.0 0.00 0.00 0.00 51 1014.3
20260903013404 76 213 3.0 7.0 0.00 0.00 0.00 50 1014.4
20260903012904 77 215 4.0 9.0 0.00 0.00 0.00 50 1014.4
20260903012403 77 229 5.0 10.0 0.00 0.00 0.00 49 1014.4
20260903011904 78 232 6.0 12.0 0.00 0.00 0.00 49 1014.3
20260903011404 78 235 6.0 12.0 0.00 0.00 0.00 48 1014.3
20260903010904 78 211 6.0 11.0 0.00 0.00 0.00 48 1014.4
20260903010403 78 228 6.0 11.0 0.00 0.00 0.00 49 1014.3
20260903005858 79 231 6.0 11.0 0.00 0.00 0.00 48 1014.3
20260903005357 79 219 5.0 11.0 0.00 0.00 0.00 48 1014.3
20260903004857 79 226 5.0 11.0 0.00 0.00 0.00 48 1014.4
20260903004358 79 223 5.0 11.0 0.00 0.00 0.00 48 1014.4
20260903003854 79 232 6.0 12.0 0.00 0.00 0.00 48 1014.5
20260903003354 80 226 6.0 12.0 0.00 0.00 0.00 48 1014.4
20260903002852 80 190 5.0 10.0 0.00 0.00 0.00 47 1014.4
20260903002610 80 238 4.0 11.0 0.00 0.00 0.00 47 1014.5
20260903001850 80 222 4.0 11.0 0.00 0.00 0.00 47 1014.4
20260903001350 81 215 4.0 8.0 0.00 0.00 0.00 47 1014.4
20260903001108 81 232 4.0 7.0 0.00 0.00 0.00 47 1014.4
20260903000342 81 249 4.0 11.0 0.00 0.00 0.00 47 1014.5
20260903000106 81 240 5.0 11.0 0.00 0.00 0.00 46 1014.6
20260902235339 81 231 5.0 12.0 0.00 0.00 0.00 46 1014.5
20260902234840 81 248 5.0 12.0 0.00 0.00 0.00 47 1014.5
20260902234340 81 232 3.0 11.0 0.00 0.00 0.00 47 1014.6
20260902233835 80 257 3.0 6.0 0.00 0.00 0.00 48 1014.6
20260902233333 81 240 3.0 8.0 0.00 0.00 0.00 47 1014.6
20260902232831 80 208 2.0 8.0 0.00 0.00 0.00 48 1014.7
20260902232331 80 174 3.0 11.0 0.00 0.00 0.00 48 1014.7
20260902231829 80 238 2.0 11.0 0.00 0.00 0.00 49 1014.8
20260902231328 78 342 1.0 5.0 0.00 0.00 0.00 53 1014.8
20260902230827 78 44 2.0 5.0 0.00 0.00 0.00 53 1014.8
20260902230320 77 44 2.0 8.0 0.00 0.00 0.00 54 1014.8
20260902225820 77 318 2.0 8.0 0.00 0.00 0.00 53 1014.9
20260902225320 77 350 2.0 7.0 0.00 0.00 0.00 54 1015.0
20260902224818 77 42 2.0 7.0 0.00 0.00 0.00 54 1015.0
20260902224317 76 344 1.0 5.0 0.00 0.00 0.00 55 1015.1
20260902223815 76 129 2.0 5.0 0.00 0.00 0.00 55 1015.1
20260902223312 77 82 2.0 9.0 0.00 0.00 0.00 54 1015.1
20260902222812 77 70 3.0 9.0 0.00 0.00 0.00 54 1015.1
20260902222310 77 63 4.0 8.0 0.00 0.00 0.00 54 1015.2
20260902221811 78 0 4.0 8.0 0.00 0.00 0.00 54 1015.2
20260902221309 78 338 4.0 8.0 0.00 0.00 0.00 53 1015.2
20260902220810 78 31 4.0 9.0 0.00 0.00 0.00 53 1015.3
20260902220307 78 5 3.0 9.0 0.00 0.00 0.00 52 1015.4
20260902215808 78 304 4.0 9.0 0.00 0.00 0.00 54 1015.4
20260902215306 77 351 4.0 9.0 0.00 0.00 0.00 54 1015.5
20260902214805 78 331 3.0 9.0 0.00 0.00 0.00 54 1015.6
20260902214522 77 340 3.0 9.0 0.00 0.00 0.00 55 1015.7
20260902213801 76 62 2.0 9.0 0.00 0.00 0.00 55 1015.7
20260902213303 76 107 3.0 9.0 0.00 0.00 0.00 57 1015.7
20260902212800 75 40 3.0 8.0 0.00 0.00 0.00 57 1015.8
20260902212258 75 75 4.0 8.0 0.00 0.00 0.00 57 1015.9
20260902211756 75 31 4.0 8.0 0.00 0.00 0.00 57 1015.9
20260902211256 75 355 4.0 8.0 0.00 0.00 0.00 59 1015.9
20260902210756 75 355 4.0 9.0 0.00 0.00 0.00 58 1015.9
20260902210255 75 0 5.0 9.0 0.00 0.00 0.00 59 1015.9
20260902205751 75 28 5.0 9.0 0.00 0.00 0.00 59 1015.8
20260902205249 75 36 5.0 10.0 0.00 0.00 0.00 59 1015.9
20260902204748 75 346 5.0 10.0 0.00 0.00 0.00 59 1016.0
20260902204248 76 349 4.0 10.0 0.00 0.00 0.00 59 1016.1
20260902203746 75 30 3.0 9.0 0.00 0.00 0.00 58 1016.1
20260902203245 75 338 3.0 7.0 0.00 0.00 0.00 58 1016.1
20260902202746 75 51 4.0 9.0 0.00 0.00 0.00 57 1016.1
20260902202244 76 355 4.0 10.0 0.00 0.00 0.00 56 1016.3
20260902201744 76 344 2.0 10.0 0.00 0.00 0.00 54 1016.3
20260902201244 76 355 2.0 6.0 0.00 0.00 0.00 54 1016.3
20260902200741 75 38 2.0 7.0 0.00 0.00 0.00 54 1016.3
20260902200242 75 95 3.0 7.0 0.00 0.00 0.00 55 1016.4
20260902195743 76 24 3.0 8.0 0.00 0.00 0.00 54 1016.4
20260902195240 76 340 3.0 8.0 0.00 0.00 0.00 54 1016.4
20260902194739 75 35 3.0 8.0 0.00 0.00 0.00 54 1016.5
20260902194240 76 336 3.0 9.0 0.00 0.00 0.00 53 1016.5
20260902193737 76 338 2.0 9.0 0.00 0.00 0.00 52 1016.4
20260902193459 78 236 2.0 6.0 0.00 0.00 0.00 49 1016.5
20260902192736 78 245 3.0 8.0 0.00 0.00 0.00 50 1016.6
20260902192456 77 242 2.0 8.0 0.00 0.00 0.00 50 1016.7
20260902191733 76 270 2.0 8.0 0.00 0.00 0.00 52 1016.7
20260902191446 76 321 3.0 8.0 0.00 0.00 0.00 53 1016.7
20260902190722 75 55 3.0 8.0 0.00 0.00 0.00 54 1016.7
20260902190220 76 333 3.0 8.0 0.00 0.00 0.00 53 1016.8
20260902185720 77 316 3.0 8.0 0.00 0.00 0.00 52 1016.8
20260902185220 78 244 3.0 7.0 0.00 0.00 0.00 51 1016.7
20260902184714 78 281 3.0 10.0 0.00 0.00 0.00 50 1016.7
20260902184212 77 238 4.0 10.0 0.00 0.00 0.00 51 1016.7
20260902183709 77 297 5.0 10.0 0.00 0.00 0.00 52 1016.7
20260902183427 77 266 5.0 11.0 0.00 0.00 0.00 52 1016.7
20260902182708 77 238 3.0 11.0 0.00 0.00 0.00 52 1016.7
20260902182207 77 182 3.0 7.0 0.00 0.00 0.00 52 1016.7
20260902181712 77 171 4.0 9.0 0.00 0.00 0.00 51 1016.6
20260902181207 78 210 4.0 11.0 0.00 0.00 0.00 50 1016.6
20260902180703 78 236 4.0 11.0 0.00 0.00 0.00 51 1016.6
20260902180649 79 216 3.0 10.0 0.00 0.00 0.00 49 1016.6
20260902175700 78 225 3.0 8.0 0.00 0.00 0.00 50 1016.6
20260902175158 78 216 4.0 10.0 0.00 0.00 0.00 52 1016.6
20260902174657 77 194 4.0 10.0 0.00 0.00 0.00 52 1016.6
20260902174157 77 162 4.0 10.0 0.00 0.00 0.00 52 1016.6
20260902173655 76 225 3.0 10.0 0.00 0.00 0.00 54 1016.6
20260902173153 76 196 3.0 8.0 0.00 0.00 0.00 55 1016.7
20260902172652 75 196 2.0 7.0 0.00 0.00 0.00 55 1016.6
20260902172514 74 182 1.0 5.0 0.00 0.00 0.00 55 1016.6
20260902172353 73 126 1.0 3.0 0.00 0.00 0.00 59 1016.6
20260902171149 72 94 1.0 6.0 0.00 0.00 0.00 58 1016.5
20260902170649 71 88 1.0 6.0 0.00 0.00 0.00 60 1016.5
20260902170415 69 107 2.0 6.0 0.00 0.00 0.00 61 1016.6
20260902165639 69 92 1.0 6.0 0.00 0.00 0.00 62 1016.6
20260902165139 69 117 2.0 4.0 0.00 0.00 0.00 63 1016.6
20260902164637 69 111 2.0 4.0 0.00 0.00 0.00 63 1016.6
20260902164135 67 104 2.0 4.0 0.00 0.00 0.00 67 1016.6
20260902163636 66 103 1.0 3.0 0.00 0.00 0.00 67 1016.5
20260902163128 66 91 0.0 3.0 0.00 0.00 0.00 68 1016.6
20260902162625 66 90 1.0 3.0 0.00 0.00 0.00 68 1016.7
20260902162344 65 90 1.0 3.0 0.00 0.00 0.00 70 1016.6
20260902161625 65 94 1.0 4.0 0.00 0.00 0.00 71 1016.6
20260902161340 64 92 1.0 4.0 0.00 0.00 0.00 71 1016.7
20260902160618 64 76 1.0 4.0 0.00 0.00 0.00 71 1016.7
20260902160116 63 71 2.0 5.0 0.00 0.00 0.00 72 1016.8
20260902155616 63 70 2.0 5.0 0.00 0.00 0.00 72 1016.8
20260902155116 62 140 1.0 4.0 0.00 0.00 0.00 74 1016.8
20260902154616 62 140 1.0 4.0 0.00 0.00 0.00 75 1016.8
20260902154115 62 161 0.0 3.0 0.00 0.00 0.00 75 1016.9
20260902153615 62 162 0.0 3.0 0.00 0.00 0.00 75 1016.9
20260902153333 62 162 1.0 4.0 0.00 0.00 0.00 75 1016.9
20260902152614 62 161 1.0 4.0 0.00 0.00 0.00 76 1016.8
20260902152114 61 109 1.0 3.0 0.00 0.00 0.00 76 1016.8
20260902151609 61 106 2.0 6.0 0.00 0.00 0.00 76 1016.7
20260902151551 61 101 2.0 6.0 0.00 0.00 0.00 76 1016.7
20260902150606 61 113 2.0 6.0 0.00 0.00 0.00 76 1016.5
20260902150105 61 107 1.0 6.0 0.00 0.00 0.00 76 1016.5
20260902145601 61 138 2.0 5.0 0.00 0.00 0.00 77 1016.3
20260902145101 61 139 2.0 6.0 0.00 0.00 0.00 77 1016.3
20260902144601 60 121 1.0 6.0 0.00 0.00 0.00 77 1016.3
20260902144331 60 138 1.0 4.0 0.00 0.00 0.00 77 1016.2
20260902143559 60 134 1.0 4.0 0.00 0.00 0.00 78 1016.2
20260902143059 60 138 1.0 4.0 0.00 0.00 0.00 78 1016.3
20260902142559 60 152 1.0 3.0 0.00 0.00 0.00 79 1016.2
20260902142058 60 152 0.0 2.0 0.00 0.00 0.00 79 1016.3
20260902141556 60 152 0.0 1.0 0.00 0.00 0.00 79 1016.3
20260902141053 60 152 0.0 2.0 0.00 0.00 0.00 79 1016.2
20260902140551 60 152 1.0 3.0 0.00 0.00 0.00 79 1016.1
20260902140049 60 152 0.0 3.0 0.00 0.00 0.00 79 1016.0
20260902135549 59 150 0.0 1.0 0.00 0.00 0.00 78 1016.1
20260902135041 59 150 0.0 2.0 0.00 0.00 0.00 78 1015.9
20260902134811 59 150 0.0 2.0 0.00 0.00 0.00 78 1015.9
20260902134040 59 150 0.0 2.0 0.00 0.00 0.00 78 1015.7
20260902133538 59 150 0.0 2.0 0.00 0.00 0.00 77 1015.7
20260902133031 59 150 0.0 1.0 0.00 0.00 0.00 77 1015.6
20260902133019 59 150 0.0 1.0 0.00 0.00 0.00 77 1015.6
20260902132032 59 150 0.0 1.0 0.00 0.00 0.00 77 1015.5
20260902131532 59 150 0.0 0.0 0.00 0.00 0.00 77 1015.4
20260902131030 59 150 0.0 0.0 0.00 0.00 0.00 77 1015.4
20260902130530 59 150 0.0 1.0 0.00 0.00 0.00 76 1015.4
20260902130030 59 150 0.0 1.0 0.00 0.00 0.00 76 1015.3
20260902125527 59 150 0.0 1.0 0.00 0.00 0.00 76 1015.3
20260902125027 59 150 0.0 2.0 0.00 0.00 0.00 76 1015.2
20260902124523 59 150 0.0 2.0 0.00 0.00 0.00 76 1015.2
20260902124023 59 149 0.0 1.0 0.00 0.00 0.00 76 1015.3
20260902123517 60 149 0.0 1.0 0.00 0.00 0.00 76 1015.3
20260902123019 60 149 0.0 1.0 0.00 0.00 0.00 76 1015.4
20260902122517 60 149 0.0 2.0 0.00 0.00 0.00 76 1015.4
20260902122235 60 149 1.0 2.0 0.00 0.00 0.00 76 1015.3
20260902121516 60 149 1.0 2.0 0.00 0.00 0.00 76 1015.3
20260902121014 60 146 0.0 1.0 0.00 0.00 0.00 76 1015.4
20260902120512 60 146 0.0 1.0 0.00 0.00 0.00 75 1015.4
20260902120012 60 145 0.0 1.0 0.00 0.00 0.00 75 1015.4
20260902115509 60 145 0.0 4.0 0.00 0.00 0.00 75 1015.4
20260902115009 60 145 0.0 4.0 0.00 0.00 0.00 75 1015.3
20260902114509 60 211 0.0 2.0 0.00 0.00 0.00 75 1015.3
20260902114011 60 211 0.0 3.0 0.00 0.00 0.00 75 1015.4
20260902113505 60 211 0.0 3.0 0.00 0.00 0.00 75 1015.4
20260902113005 60 211 0.0 1.0 0.00 0.00 0.00 75 1015.5
20260902112501 60 211 0.0 3.0 0.00 0.00 0.00 76 1015.5
20260902112001 60 211 0.0 3.0 0.00 0.00 0.00 76 1015.6
20260902111500 60 211 1.0 3.0 0.00 0.00 0.00 75 1015.7
20260902111001 60 211 1.0 3.0 0.00 0.00 0.00 75 1015.8
20260902110501 60 211 2.0 3.0 0.00 0.00 0.00 76 1015.8
20260902105959 60 211 2.0 3.0 0.00 0.00 0.00 76 1016.0
20260902105718 60 211 1.0 3.0 0.00 0.00 0.00 75 1016.1
20260902104953 60 210 1.0 4.0 0.00 0.00 0.00 75 1016.1
20260902104451 60 209 2.0 4.0 0.00 0.00 0.00 75 1016.2
20260902103949 60 207 2.0 4.0 0.00 0.00 0.00 76 1016.2
20260902103449 60 188 1.0 4.0 0.00 0.00 0.00 76 1016.1
20260902102949 60 183 1.0 4.0 0.00 0.00 0.00 76 1016.2
20260902102449 60 183 1.0 5.0 0.00 0.00 0.00 75 1016.2
20260902101947 60 174 1.0 5.0 0.00 0.00 0.00 75 1016.2
20260902101439 60 175 0.0 1.0 0.00 0.00 0.00 74 1016.3
20260902101156 60 175 0.0 0.0 0.00 0.00 0.00 74 1016.2
20260902100437 60 175 0.0 0.0 0.00 0.00 0.00 74 1016.2
20260902100159 60 175 0.0 1.0 0.00 0.00 0.00 74 1016.1
20260902095435 60 175 0.0 1.0 0.00 0.00 0.00 74 1016.1
20260902094930 60 175 0.0 1.0 0.00 0.00 0.00 74 1016.1
20260902094428 60 175 0.0 1.0 0.00 0.00 0.00 74 1016.1
20260902094124 60 175 0.0 2.0 0.00 0.00 0.00 73 1016.1
20260902094006 60 175 0.0 1.0 0.00 0.00 0.00 74 1016.1
20260902092920 60 175 0.0 2.0 0.00 0.00 0.00 73 1016.1
20260902092419 60 175 0.0 1.0 0.00 0.00 0.00 72 1016.0
20260902091917 61 175 0.0 1.0 0.00 0.00 0.00 72 1015.9
20260902091418 61 175 0.0 0.0 0.00 0.00 0.00 72 1016.0
20260902090914 61 175 0.0 3.0 0.00 0.00 0.00 72 1016.0
20260902090413 61 175 1.0 3.0 0.00 0.00 0.00 71 1015.9
20260902085913 61 175 1.0 3.0 0.00 0.00 0.00 71 1015.9
20260902085411 61 177 0.0 3.0 0.00 0.00 0.00 71 1015.8
20260902084910 61 248 0.0 3.0 0.00 0.00 0.00 72 1015.8
20260902084403 61 248 1.0 3.0 0.00 0.00 0.00 72 1015.8
20260902084129 61 248 2.0 4.0 0.00 0.00 0.00 72 1015.7
20260902083401 61 248 3.0 6.0 0.00 0.00 0.00 72 1015.7
20260902082859 61 264 3.0 6.0 0.00 0.00 0.00 72 1015.7
20260902082359 61 267 3.0 6.0 0.00 0.00 0.00 72 1015.6
20260902081854 61 262 3.0 6.0 0.00 0.00 0.00 72 1015.6
20260902081353 61 270 2.0 6.0 0.00 0.00 0.00 72 1015.6
20260902081119 61 246 1.0 4.0 0.00 0.00 0.00 72 1015.7
20260902080349 61 242 0.0 2.0 0.00 0.00 0.00 71 1015.7
20260902075847 61 242 0.0 2.0 0.00 0.00 0.00 71 1015.7
20260902075345 61 242 0.0 2.0 0.00 0.00 0.00 71 1015.6
20260902074845 61 242 0.0 0.0 0.00 0.00 0.00 71 1015.6
20260902074343 61 242 0.0 0.0 0.00 0.00 0.00 71 1015.6
20260902073844 61 242 0.0 0.0 0.00 0.00 0.00 71 1015.5
20260902073343 61 242 0.0 0.0 0.00 0.00 0.00 71 1015.5
20260902072841 61 242 0.0 0.0 0.00 0.00 0.00 72 1015.5
20260902072600 61 242 0.0 0.0 0.00 0.00 0.00 72 1015.5
20260902071839 61 242 0.0 0.0 0.00 0.00 0.00 73 1015.5
20260902071338 61 242 0.0 0.0 0.00 0.00 0.00 72 1015.5
20260902070839 61 242 0.0 0.0 0.00 0.00 0.00 71 1015.6
20260902070553 61 242 0.0 0.0 0.00 0.00 0.00 71 1015.5
20260902065836 62 244 0.0 2.0 0.00 0.00 0.00 70 1015.5
20260902065336 62 244 1.0 2.0 0.00 0.00 0.00 70 1015.6
20260902065100 62 243 1.0 2.0 0.00 0.00 0.00 71 1015.5
20260902064334 62 243 1.0 3.0 0.00 0.00 0.00 70 1015.5
20260902063834 62 243 1.0 3.0 0.00 0.00 0.00 70 1015.5
20260902063332 63 243 2.0 5.0 0.00 0.00 0.00 70 1015.5
20260902062829 63 241 3.0 8.0 0.00 0.00 0.00 69 1015.5